Regional Weather Roundup
Issued by NWS

Home | Current Version | Previous Version | Graphics & Text | Print | Product List | Glossary On
Versions: 1 2 3 4 5 6 7 8 9 10 11 12 13 14 15 16 17 18 19 20 21 22 23 24 25 26 27 28 29 30 31 32 33 34 35 36 37 38 39 40 41 42 43 44 45 46 47 48 49 50
539
ASUS45 KSLC 221010
RWRUT

UTAH REGIONAL WEATHER ROUNDUP
NATIONAL WEATHER SERVICE SALT LAKE CITY UT
300 AM MST WED NOV 22 2017

UTZ001>011-023>025-221100-

NORTHERN UTAH

CITY           SKY/WX    TMP DP  RH WIND       PRES   REMARKS
BRIGHAM CITY   CLOUDY    47  40  77 CALM      30.40R
HILL AFB       CLOUDY    49  38  64 E9        30.40R
LOGAN          CLOUDY    47  42  83 CALM      30.39R
OGDEN          CLOUDY    48  39  71 CALM      30.39R
SALT LAKE CITY PTCLDY    46  39  76 SE7       30.39R
TOOELE VALLEY  PTCLDY    45  37  76 CALM      30.39S
WENDOVER       PTCLDY    40  36  86 CALM      30.39R
HEBER CITY       N/A     32  30  93 CALM      30.45R
WEST JORDAN    PTCLDY    45  39  81 S5        30.40S

$$

UTZ011>015-024>027-221100-

CENTRAL/NORTHEAST UTAH

CITY           SKY/WX    TMP DP  RH WIND       PRES   REMARKS
PROVO AIRPORT  MOCLDY    39  35  86 E5        30.43R
MOAB/CANYONLAN MOCLDY    33  11  39 CALM      30.41R
DELTA          MOCLDY    36  28  75 E5        30.42S WCI  32
PRICE          MOCLDY    36  24  62 N3        30.42R
ROOSEVELT      CLOUDY    36  30  80 SW7       30.43R WCI  30
VERNAL         CLOUDY    38  30  73 W5        30.41R WCI  34

$$

UTZ013>016-019>022-027-221100-

SOUTHERN UTAH

CITY           SKY/WX    TMP DP  RH WIND       PRES   REMARKS
BRYCE CANYON   CLEAR     29  28  96 W6        30.49F WCI  23
CEDAR CITY     PTCLDY    36  32  85 CALM      30.41S
MILFORD        PTCLDY    36  31  82 S6        30.41S WCI  31
ST GEORGE      MOSUNNY   48  23  37 N5        30.32S
HANKSVILLE     MOCLDY    32  10  40 CALM      30.44R
BLANDING         N/A     39  28  63 N3        30.48R

$$

REGIONAL REPORTS     COLORADO/ARIZONA

CITY           SKY/WX    TMP DP  RH WIND       PRES   REMARKS
CRAIG, CO      CLOUDY    32  29  88 CALM      30.43F
GRAND JUNCTION CLOUDY    35  26  69 NE6       30.44R WCI  30
RIFLE, CO      CLOUDY    30  29  96 SE3       30.47R
MONTROSE, CO   CLOUDY    32  28  85 S3        30.47R
CORTEZ, CO     CLOUDY    29  23  78 NE6       30.40S WCI  23
COLORADO CITY    N/A     36  27  69 CALM      30.40S
PAGE, AZ       PTCLDY    45  21  38 SW3       30.37S
GRAND CANYON   PTCLDY    27  20  75 NE3       30.44S
KINGMAN, AZ    PTCLDY    49  22  34 E5        30.27S
FLAGSTAFF, AZ  PTCLDY    43  27  53 E5        30.43F

$$

REGIONAL REPORTS    NEVADA/IDAHO/WYOMING

CITY           SKY/WX    TMP DP  RH WIND       PRES   REMARKS
LAS VEGAS, NV  MOCLDY    57  30  35 S5        30.24S
ELY, NY        CLEAR     32  28  85 S16       30.46S WCI  21
ELKO, NV       MOCLDY    35  32  88 CALM      30.40S
POCATELLO, ID  CLOUDY    40  40 100 NE5       30.36R FOG
BURLEY, ID     MOCLDY    44  42  93 CALM      30.33R
FORT BRIDGER,  CLOUDY    45  37  73 W7        30.46S
EVANSTON, WY   CLOUDY    40  36  86 SW10      30.45R WCI  33
ROCK SPRINGS,  CLOUDY    43  34  70 SW15      30.39F
KEMMERER, WY   CLOUDY    37  36  93 SW5       30.43S WCI  34

$$




USA.gov is the U.S. government's official web portal to all federal, state and local government web resources and services.